Regional Weather Roundup
Issued by NWS Newport/Morehead, NC

Current Version | Previous Version | Graphics & Text | Print | Product List | Glossary Off
Versions: 1 2 3 4 5 6 7 8 9 10 11 12 13 14 15 16 17 18 19 20 21 22 23 24 25 26 27 28 29 30 31 32 33 34 35 36 37 38 39 40 41 42 43 44 45 46 47 48 49 50

000
ASUS42 KMHX 161814
RWRMHX
WEATHER ROUNDUP FOR EASTERN NORTH CAROLINA
NATIONAL WEATHER SERVICE NEWPORT/MOREHEAD CITY NC
200 PM EDT WED AUG 16 2017

NOTE: "FAIR" INDICATES FEW OR NO CLOUDS BELOW 12,000 FEET
WITH NO SIGNIFICANT WEATHER AND/OR OBSTRUCTIONS TO VISIBILITY

NCZ015>017-031-032-045>047-102-103-161900-
NORTH COAST

CITY           SKY/WX    TMP DP  RH WIND       PRES   REMARKS
EDENTON        CLOUDY    85  76  74 SW5       30.01S
ELIZABETH CITY PTSUNNY   86  77  74 E9        30.00S
KITTY HAWK     CLEAR     81  74  79 N6        30.01R
MANTEO         MOSUNNY   82  75  80 NE10      30.02R

$$

NCZ045>047-081-094-103-104-161900-
CENTRAL COAST

CITY           SKY/WX    TMP DP  RH WIND       PRES   REMARKS
FRISCO         MOSUNNY   87  77  72 NE8       29.99S

$$

NCZ095-097-098-100-101-161900-
SOUTHERN COAST

CITY           SKY/WX    TMP DP  RH WIND       PRES   REMARKS
BEAUFORT       PTSUNNY   87  77  72 N6        29.98F
CEDAR ISLAND   NOT AVBL
JACKSONVILLE   PTSUNNY   86  77  74 VRB7      30.00F
PINEY ISLAND   MOCLDY   N/A N/A N/A E8        29.99S
WILMINGTON     MOSUNNY   92  75  57 VRB5      29.99F HX 103


$$

NCZ011>013-027>030-043-044-078>080-089-090>093-098-161900-
COASTAL PLAIN

CITY           SKY/WX    TMP DP  RH WIND       PRES   REMARKS
AHOSKIE          N/A     84  72  66 CALM      30.02S
CLINTON        MOSUNNY   90  74  59 N5        30.01F
ELIZABETHTOWN  NOT AVBL
GOLDSBORO      MOSUNNY   86  79  79 NE6       30.01F
GREENVILLE     MOSUNNY   86  73  66 NE5       30.03S
HAVELOCK       PTSUNNY   89  74  60 NW10      30.01S
KENANSVILLE    PTSUNNY   86  75  70 N6        30.01S
KINSTON        PTSUNNY  N/A N/A N/A N5        30.02F
NEW BERN       PTSUNNY   86  77  74 CALM      30.01F
RICHLANDS      SUNNY     87  76  69 N6        30.01F
ROCKY MOUNT    MOSUNNY   83  74  74 N6        30.03F
WASHINGTON     MOSUNNY   86  75  70 N5        30.01S
WHITEVILLE     MOSUNNY   90  75  61 W3        29.99F HX 100

$$

AMZ130-135-150-152-154-156-158-170-250-252-270-ANZ085-086-088-633-658-670-161900-
MARINE OBSERVATIONS

STATION/POSITION TIME  TEMP    WIND        PRES    WAVE   SWELL
                       AIR SEA DIR/SP/G            HT/PER HT/PER
                 (UTC) (F)     (DEG/KT/KT) (MB)    (FT/S) (FT/S)
CHESAPEAKE LIGHT NOT AVBL
64 E VA BEACH    1750   78 79   10/  8/  8 1016.5    3/ 8   3/ 8
DUCK             1748   78 80   30/ 11/ 11 1016.0
2 E DUCK         1800      80                N/A     3/ 8
OREGON INLET     1736   80 83   10/  7/ 10 1016.2
13E OREGON INLT  1748      79                N/A     3/ 8   2/ 8
HATTERAS CG      1748   82 84   30/ 10/ 13 1015.7
DIAMOND BUOY     1750   80 83   10/ 10/ 10 1015.3    3/ 8   2/ 8
CAPE LOOKOUT     1800   79     130/  4/  5 1015.4
BEAUFORT LAB     1748   86 82   30/  5/  9 1014.9
30 SE NEW RVR IN 1708   81 83   10/  6/ 10 1015.9
30 SE NEW RVR IN 1743      83                N/A     3/ 5
27 SE WRIGHTSVLE 1708   82 83  350/  6/ 10 1015.8
5 SE WRIGHTSVLE  1708   83 84  130/  8/  8 1015.6
225 S CAPE HAT   1750   84 84  230/ 12/ 14 1016.3    4/ 6   3/10
41 SE CHARLESTON 1750   83 84  240/  6/  8 1016.0    2/ 4   2/ 4

$$



USA.gov is the U.S. government's official web portal to all federal, state and local government web resources and services.